User: anonymous   Login
Location: Chandrammap?lem
(16.9200°N, 81.0051°E)
Time: 17:01:32
(UTC+00:00)
Language:

Meteor 1-27 Rocket - Orbit

View from above orbital plane
View from above orbital plane
View from above satellite
View from above satellite

Ground track
Ground track

The orbit data is extracted from the following two-line orbital elements,

1 09904U 77024B   24204.80817672  .00000270  00000-0  15188-3 0  9998
2 09904  81.2637 144.4114 0054803 224.2844 135.3935 14.07121218427128
Epoch (UTC): 22 July 2024 19:23:46
Eccentricity: 0.0054803
inclination: 81.2637°
perigee height: 829 km
apogee height: 909 km
right ascension of ascending node: 144.4114°
argument of perigee: 224.2844°
revolutions per day: 14.07121218
mean anomaly at epoch: 135.3935°
orbit number at epoch: 42712

The dashed part of the orbit path shows where the satellite is in the earth's shadow,  

DLR